Flag for Germany Weather past 2 weeks in Crailsheim, Baden-Württemberg, Germany

Now
70 °F

Scattered clouds.


Feels Like: 70 °F
Forecast: 56 / 68 °F
Wind: 7 mph from South

Location: Niederstetten

Current Time: Aug 28, 2014 at 5:11:35 PM

Latest Report: Aug 28, 2014 at 4:20 PM


Visibility: N/A

Pressure: 30.07 "Hg

Humidity: 60%

Dew point: 55 °F

Location of CrailsheimLocation

Historic Weather in Crailsheim — Graph

°F

Crailsheim temperature yesterday

Maximum temperature yesterday: 66 °F (at 4:20 PM)
Minimum temperature yesterday: 52 °F (at 6:20 AM)
Average temperature yesterday: 57 °F

Past Weeks' High & Low Weather Summary

 TemperatureHumidityPressure
High70 °F (Aug 28, 2:20 PM)100% (Aug 15, 12:20 AM)30.12 "Hg (Aug 15, 12:20 AM)
Low45 °F (Aug 20, 6:20 AM)37% (Aug 22, 6:20 PM)29.68 "Hg (Aug 13, 3:20 PM)
Average56 °F78%29.96 "Hg
* Reported Aug 13 3:20 PM — Aug 28 3:20 PM, Crailsheim, Weather by CustomWeather, © 2014

Note: Actual official high and low records may vary slightly from our data, if they occured in-between our weather recording intervals... More about our weather records

Advertising

Crailsheim weather history for previous 24 hours

 ConditionsComfort  
Time TempWeatherWind HumidityBarometerVisibility
3:20 PM
Aug 28
70 °FScattered clouds.6 mph60%30.07 "HgN/A
2:20 PM70 °FPartly sunny.8 mph60%30.07 "HgN/A
1:20 PM68 °FScattered clouds.7 mph60%30.07 "HgN/A
12:20 PM68 °FPassing clouds.7 mph60%30.09 "HgN/A
11:20 AM66 °FPassing clouds.6 mph64%30.09 "HgN/A
10:20 AM63 °FPassing clouds.7 mph77%30.09 "HgN/A
9:20 AM61 °FScattered clouds.7 mph77%30.09 "HgN/A
8:20 AM57 °FScattered clouds.6 mph88%30.09 "HgN/A
7:20 AM52 °FFog.6 mph88%30.07 "HgN/A
6:20 AM52 °FFog.7 mph82%30.07 "HgN/A
5:20 AM50 °FPassing clouds.6 mph88%30.07 "HgN/A
4:20 AM50 °FPassing clouds.6 mph88%30.07 "HgN/A
3:20 AM50 °FPassing clouds.5 mph94%30.07 "HgN/A
2:20 AM52 °FPassing clouds.6 mph82%30.07 "HgN/A
1:20 AM50 °FPassing clouds.5 mph94%30.09 "HgN/A
12:20 AM50 °FPassing clouds.5 mph94%30.09 "HgN/A
11:20 PM
Aug 27
52 °FPassing clouds.5 mph94%30.07 "HgN/A
10:20 PM52 °FPassing clouds.3 mph100%30.07 "HgN/A
9:20 PM54 °FPassing clouds.3 mph94%30.07 "HgN/A
8:20 PM57 °FScattered clouds.2 mph88%30.07 "HgN/A
7:20 PM66 °FScattered clouds.2 mph60%30.07 "HgN/A
6:20 PM64 °FPassing clouds.2 mph60%30.07 "HgN/A
5:20 PM64 °FPassing clouds.5 mph56%30.04 "HgN/A
Weather by CustomWeather, © 2014

See weather overviewHow to use our weather pages